This is the latest recevied weather packets stored in our database for station/object YACHTS. If no packets are shown the sender has not sent any weather packets the latest 10 day(s).
| Time | Temp. | Humidity | Pressure | Rain* | Wind** | Luminosity | Snow |
|---|---|---|---|---|---|---|---|
| 1777027342 | 1.67° C | 92% | 1018.6 hPa | 0 mm | - | - | - |
| 1777027028 | 1.67° C | 92% | 1018.7 hPa | 0 mm | - | - | - |
| 1777026715 | 2.22° C | 92% | 1018.8 hPa | 0 mm | - | - | - |
| 1777026402 | 1.67° C | 91% | 1018.8 hPa | 0 mm | - | - | - |
| 1777026089 | 2.22° C | 91% | 1018.8 hPa | 0 mm | - | - | - |
| 1777025776 | 2.78° C | 91% | 1018.8 hPa | 0 mm | - | - | - |
| 1777025465 | 2.22° C | 91% | 1018.8 hPa | 0 mm | - | - | - |
| 1777025150 | 2.22° C | 91% | 1018.8 hPa | 0 mm | - | - | - |
| 1777024837 | 2.22° C | 91% | 1018.9 hPa | 0 mm | - | - | - |
| 1777024524 | 1.67° C | 91% | 1018.8 hPa | 0 mm | - | - | - |
| 1777024211 | 2.78° C | 91% | 1018.9 hPa | 0 mm | - | - | - |
| 1777023585 | 3.33° C | 91% | 1019 hPa | 0 mm | - | - | - |
| 1777023272 | 3.89° C | 91% | 1019.1 hPa | 0 mm | - | - | - |
| 1777022959 | 3.33° C | 91% | 1019.1 hPa | 0 mm | - | - | - |
| 1777022646 | 3.89° C | 91% | 1019.1 hPa | 0 mm | - | - | - |
| 1777022333 | 3.89° C | 90% | 1019.2 hPa | 0 mm | - | - | - |
| 1777022020 | 3.89° C | 91% | 1019.2 hPa | 0 mm | - | - | - |
| 1777021707 | 3.89° C | 91% | 1019.3 hPa | 0 mm | - | - | - |
| 1777021394 | 3.89° C | 91% | 1019.2 hPa | 0 mm | - | - | - |
| 1777021081 | 3.89° C | 90% | 1019.3 hPa | 0 mm | - | - | - |
| 1777020769 | 3.89° C | 90% | 1019.4 hPa | 0 mm | - | - | - |
| 1777020456 | 3.89° C | 90% | 1019.4 hPa | 0 mm | - | - | - |
| 1777020142 | 3.89° C | 90% | 1019.4 hPa | 0 mm | - | - | - |
| 1777019829 | 3.89° C | 90% | 1019.6 hPa | 0 mm | - | - | - |
| 1777019516 | 3.33° C | 90% | 1019.6 hPa | 0 mm | - | - | - |
* Rain latest hour (hover to see other rain measurements)
** Current wind speed in m/s (hover to see current wind gust speed)